Year,Month,Day,Hour,Minute,Value (Times are PST for temperature in C)
2019,10,28,00,00,6.10
2019,10,28,00,01,6.10
2019,10,28,00,02,6.10
2019,10,28,00,03,6.10
2019,10,28,00,04,6.10
2019,10,28,00,05,6.10
2019,10,28,00,06,6.10
2019,10,28,00,07,6.10
2019,10,28,00,08,6.10
2019,10,28,00,09,6.10
2019,10,28,00,10,6.10
2019,10,28,00,11,6.10
2019,10,28,00,12,6.10
2019,10,28,00,13,6.10
2019,10,28,00,14,6.10
2019,10,28,00,15,6.10
2019,10,28,00,16,6.10
2019,10,28,00,17,6.10
2019,10,28,00,18,6.10
2019,10,28,00,19,6.10
2019,10,28,00,20,6.10
2019,10,28,00,21,6.10
2019,10,28,00,22,6.10
2019,10,28,00,23,6.10
2019,10,28,00,24,6.10
2019,10,28,00,25,6.10
2019,10,28,00,26,6.10
2019,10,28,00,27,6.10
2019,10,28,00,28,6.10
2019,10,28,00,29,6.10
2019,10,28,00,30,6.10
2019,10,28,00,31,6.10
2019,10,28,00,32,6.10
2019,10,28,00,33,6.10
2019,10,28,00,34,6.00
2019,10,28,00,35,6.00
2019,10,28,00,36,6.00
2019,10,28,00,37,6.00
2019,10,28,00,38,6.00
2019,10,28,00,39,6.00
2019,10,28,00,40,6.00
2019,10,28,00,41,6.00
2019,10,28,00,42,6.00
2019,10,28,00,43,6.00
2019,10,28,00,44,5.90
2019,10,28,00,45,5.90
2019,10,28,00,46,5.90
2019,10,28,00,47,5.90
2019,10,28,00,48,5.90
2019,10,28,00,49,5.90
2019,10,28,00,50,5.90
2019,10,28,00,51,5.90
2019,10,28,00,52,5.90
2019,10,28,00,53,5.90
2019,10,28,00,54,5.80
2019,10,28,00,55,5.80
2019,10,28,00,56,5.80
2019,10,28,00,57,5.80
2019,10,28,00,58,5.80
2019,10,28,00,59,5.80
2019,10,28,01,00,5.80
2019,10,28,01,01,5.80
2019,10,28,01,02,5.80
2019,10,28,01,03,5.80
2019,10,28,01,04,5.80
2019,10,28,01,05,5.80
2019,10,28,01,06,5.80
2019,10,28,01,07,5.80
2019,10,28,01,08,5.80
2019,10,28,01,09,5.80
2019,10,28,01,10,5.80
2019,10,28,01,11,5.80
2019,10,28,01,12,5.80
2019,10,28,01,13,5.80
2019,10,28,01,14,5.80
2019,10,28,01,15,5.70
2019,10,28,01,16,5.80
2019,10,28,01,17,5.70
2019,10,28,01,18,5.70
2019,10,28,01,19,5.70
2019,10,28,01,20,5.70
2019,10,28,01,21,5.70
2019,10,28,01,22,5.70
2019,10,28,01,23,5.70
2019,10,28,01,24,5.70
2019,10,28,01,25,5.70
2019,10,28,01,26,5.70
2019,10,28,01,27,5.70
2019,10,28,01,28,5.70
2019,10,28,01,29,5.70
2019,10,28,01,30,5.70
2019,10,28,01,31,5.70
2019,10,28,01,32,5.70
2019,10,28,01,33,5.70
2019,10,28,01,34,5.70
2019,10,28,01,35,5.70
2019,10,28,01,36,5.70
2019,10,28,01,37,5.70
2019,10,28,01,38,5.70
2019,10,28,01,39,5.70
2019,10,28,01,40,5.70
2019,10,28,01,41,5.70
2019,10,28,01,42,5.70
2019,10,28,01,43,5.70
2019,10,28,01,44,5.70
2019,10,28,01,45,5.70
2019,10,28,01,46,5.70
2019,10,28,01,47,5.70
2019,10,28,01,48,5.70
2019,10,28,01,49,5.70
2019,10,28,01,50,5.60
2019,10,28,01,51,5.60
2019,10,28,01,52,5.60
2019,10,28,01,53,5.60
2019,10,28,01,54,5.60
2019,10,28,01,55,5.60
2019,10,28,01,56,5.60
2019,10,28,01,57,5.60
2019,10,28,01,58,5.50
2019,10,28,01,59,5.50
2019,10,28,02,00,5.50
2019,10,28,02,01,5.50
2019,10,28,02,02,5.40
2019,10,28,02,03,5.40
2019,10,28,02,04,5.40
2019,10,28,02,05,5.40
2019,10,28,02,06,5.40
2019,10,28,02,07,5.30
2019,10,28,02,08,5.30
2019,10,28,02,09,5.30
2019,10,28,02,10,5.30
2019,10,28,02,11,5.30
2019,10,28,02,12,5.30
2019,10,28,02,13,5.20
2019,10,28,02,14,5.20
2019,10,28,02,15,5.20
2019,10,28,02,16,5.20
2019,10,28,02,17,5.20
2019,10,28,02,18,5.20
2019,10,28,02,19,5.20
2019,10,28,02,20,5.20
2019,10,28,02,21,5.10
2019,10,28,02,22,5.10
2019,10,28,02,23,5.10
2019,10,28,02,24,5.10
2019,10,28,02,25,5.10
2019,10,28,02,26,5.10
2019,10,28,02,27,5.10
2019,10,28,02,28,5.10
2019,10,28,02,29,5.10
2019,10,28,02,30,5.10
2019,10,28,02,31,5.00
2019,10,28,02,32,5.00
2019,10,28,02,33,5.00
2019,10,28,02,34,5.00
2019,10,28,02,35,5.00
2019,10,28,02,36,4.90
2019,10,28,02,37,4.90
2019,10,28,02,38,4.90
2019,10,28,02,39,4.90
2019,10,28,02,40,4.90
2019,10,28,02,41,4.90
2019,10,28,02,42,4.90
2019,10,28,02,43,4.90
2019,10,28,02,44,4.90
2019,10,28,02,45,4.80
2019,10,28,02,46,4.80
2019,10,28,02,47,4.80
2019,10,28,02,48,4.80
2019,10,28,02,49,4.80
2019,10,28,02,50,4.80
2019,10,28,02,51,4.80
2019,10,28,02,52,4.70
2019,10,28,02,53,4.70
2019,10,28,02,54,4.70
2019,10,28,02,55,4.70
2019,10,28,02,56,4.70
2019,10,28,02,57,4.70
2019,10,28,02,58,4.70
2019,10,28,02,59,4.70
2019,10,28,03,00,4.70
2019,10,28,03,01,4.70
2019,10,28,03,02,4.70
2019,10,28,03,03,4.70
2019,10,28,03,04,4.60
2019,10,28,03,05,4.60
2019,10,28,03,06,4.60
2019,10,28,03,07,4.60
2019,10,28,03,08,4.60
2019,10,28,03,09,4.60
2019,10,28,03,10,4.60
2019,10,28,03,11,4.60
2019,10,28,03,12,4.60
2019,10,28,03,13,4.60
2019,10,28,03,14,4.60
2019,10,28,03,15,4.60
2019,10,28,03,16,4.60
2019,10,28,03,17,4.60
2019,10,28,03,18,4.60
2019,10,28,03,19,4.60
2019,10,28,03,20,4.60
2019,10,28,03,21,4.60
2019,10,28,03,22,4.60
2019,10,28,03,23,4.60
2019,10,28,03,24,4.60
2019,10,28,03,25,4.60
2019,10,28,03,26,4.60
2019,10,28,03,27,4.60
2019,10,28,03,28,4.60
2019,10,28,03,29,4.60
2019,10,28,03,30,4.60
2019,10,28,03,31,4.60
2019,10,28,03,32,4.60
2019,10,28,03,33,4.60
2019,10,28,03,34,4.60
2019,10,28,03,35,4.60
2019,10,28,03,36,4.60
2019,10,28,03,37,4.60
2019,10,28,03,38,4.50
2019,10,28,03,39,4.50
2019,10,28,03,40,4.50
2019,10,28,03,41,4.50
2019,10,28,03,42,4.50
2019,10,28,03,43,4.50
2019,10,28,03,44,4.40
2019,10,28,03,45,4.40
2019,10,28,03,46,4.40
2019,10,28,03,47,4.40
2019,10,28,03,48,4.40
2019,10,28,03,49,4.30
2019,10,28,03,50,4.30
2019,10,28,03,51,4.30
2019,10,28,03,52,4.30
2019,10,28,03,53,4.30
2019,10,28,03,54,4.30
2019,10,28,03,55,4.20
2019,10,28,03,56,4.20
2019,10,28,03,57,4.20
2019,10,28,03,58,4.20
2019,10,28,03,59,4.20
2019,10,28,04,00,4.20
2019,10,28,04,01,4.20
2019,10,28,04,02,4.20
2019,10,28,04,03,4.20
2019,10,28,04,04,4.20
2019,10,28,04,05,4.20
2019,10,28,04,06,4.20
2019,10,28,04,07,4.20
2019,10,28,04,08,4.20
2019,10,28,04,09,4.20
2019,10,28,04,10,4.20
2019,10,28,04,11,4.20
2019,10,28,04,12,4.20
2019,10,28,04,13,4.20
2019,10,28,04,14,4.20
2019,10,28,04,15,4.20
2019,10,28,04,16,4.20
2019,10,28,04,17,4.10
2019,10,28,04,18,4.10
2019,10,28,04,19,4.10
2019,10,28,04,20,4.10
2019,10,28,04,21,4.10
2019,10,28,04,22,4.10
2019,10,28,04,23,4.10
2019,10,28,04,24,4.10
2019,10,28,04,25,4.00
2019,10,28,04,26,4.00
2019,10,28,04,27,4.00
2019,10,28,04,28,3.90
2019,10,28,04,29,3.90
2019,10,28,04,30,3.90
2019,10,28,04,31,3.90
2019,10,28,04,32,3.90
2019,10,28,04,33,3.90
2019,10,28,04,34,3.90
2019,10,28,04,35,3.90
2019,10,28,04,36,3.90
2019,10,28,04,37,3.90
2019,10,28,04,38,3.90
2019,10,28,04,39,3.90
2019,10,28,04,40,3.90
2019,10,28,04,41,3.90
2019,10,28,04,42,3.90
2019,10,28,04,43,3.90
2019,10,28,04,44,3.90
2019,10,28,04,45,3.90
2019,10,28,04,46,3.90
2019,10,28,04,47,3.90
2019,10,28,04,48,3.90
2019,10,28,04,49,3.90
2019,10,28,04,50,3.90
2019,10,28,04,51,3.90
2019,10,28,04,52,3.90
2019,10,28,04,53,3.90
2019,10,28,04,54,3.80
2019,10,28,04,55,3.80
2019,10,28,04,56,3.80
2019,10,28,04,57,3.80
2019,10,28,04,58,3.80
2019,10,28,04,59,3.80
2019,10,28,05,00,3.80
2019,10,28,05,01,3.80
2019,10,28,05,02,3.80
2019,10,28,05,03,3.80
2019,10,28,05,04,3.80
2019,10,28,05,05,3.80
2019,10,28,05,06,3.80
2019,10,28,05,07,3.80
2019,10,28,05,08,3.80
2019,10,28,05,09,3.80
2019,10,28,05,10,3.80
2019,10,28,05,11,3.80
2019,10,28,05,12,3.80
2019,10,28,05,13,3.80
2019,10,28,05,14,3.80
2019,10,28,05,15,3.80
2019,10,28,05,16,3.80
2019,10,28,05,17,3.80
2019,10,28,05,18,3.70
2019,10,28,05,19,3.70
2019,10,28,05,20,3.70
2019,10,28,05,21,3.70
2019,10,28,05,22,3.70
2019,10,28,05,23,3.70
2019,10,28,05,24,3.70
2019,10,28,05,25,3.70
2019,10,28,05,26,3.70
2019,10,28,05,27,3.70
2019,10,28,05,28,3.70
2019,10,28,05,29,3.70
2019,10,28,05,30,3.70
2019,10,28,05,31,3.70
2019,10,28,05,32,3.70
2019,10,28,05,33,3.70
2019,10,28,05,34,3.70
2019,10,28,05,35,3.70
2019,10,28,05,36,3.70
2019,10,28,05,37,3.70
2019,10,28,05,38,3.70
2019,10,28,05,39,3.70
2019,10,28,05,40,3.70
2019,10,28,05,41,3.70
2019,10,28,05,42,3.70
2019,10,28,05,43,3.70
2019,10,28,05,44,3.70
2019,10,28,05,45,3.70
2019,10,28,05,46,3.70
2019,10,28,05,47,3.70
2019,10,28,05,48,3.70
2019,10,28,05,49,3.70
2019,10,28,05,50,3.70
2019,10,28,05,51,3.70
2019,10,28,05,52,3.70
2019,10,28,05,53,3.70
2019,10,28,05,54,3.70
2019,10,28,05,55,3.70
2019,10,28,05,56,3.70
2019,10,28,05,57,3.70
2019,10,28,05,58,3.70
2019,10,28,05,59,3.70
2019,10,28,06,00,3.70
2019,10,28,06,01,3.70
2019,10,28,06,02,3.70
2019,10,28,06,03,3.70
2019,10,28,06,04,3.60
2019,10,28,06,05,3.60
2019,10,28,06,06,3.60
2019,10,28,06,07,3.60
2019,10,28,06,08,3.50
2019,10,28,06,09,3.50
2019,10,28,06,10,3.50
2019,10,28,06,11,3.50
2019,10,28,06,12,3.40
2019,10,28,06,13,3.40
2019,10,28,06,14,3.40
2019,10,28,06,15,3.40
2019,10,28,06,16,3.40
2019,10,28,06,17,3.40
2019,10,28,06,18,3.30
2019,10,28,06,19,3.40
2019,10,28,06,20,3.30
2019,10,28,06,21,3.30
2019,10,28,06,22,3.30
2019,10,28,06,23,3.30
2019,10,28,06,24,3.30
2019,10,28,06,25,3.30
2019,10,28,06,26,3.30
2019,10,28,06,27,3.30
2019,10,28,06,28,3.30
2019,10,28,06,29,3.30
2019,10,28,06,30,3.30
2019,10,28,06,31,3.30
2019,10,28,06,32,3.30
2019,10,28,06,33,3.30
2019,10,28,06,34,3.30
2019,10,28,06,35,3.30
2019,10,28,06,36,3.30
2019,10,28,06,37,3.30
2019,10,28,06,38,3.30
2019,10,28,06,39,3.30
2019,10,28,06,40,3.30
2019,10,28,06,41,3.30
2019,10,28,06,42,3.30
2019,10,28,06,43,3.30
2019,10,28,06,44,3.30
2019,10,28,06,45,3.30
2019,10,28,06,46,3.30
2019,10,28,06,47,3.30
2019,10,28,06,48,3.30
2019,10,28,06,49,3.30
2019,10,28,06,50,3.30
2019,10,28,06,51,3.30
2019,10,28,06,52,3.30
2019,10,28,06,53,3.30
2019,10,28,06,54,3.30
2019,10,28,06,55,3.30
2019,10,28,06,56,3.30
2019,10,28,08,54,3.10
2019,10,28,08,55,3.10
2019,10,28,08,56,3.10
2019,10,28,08,57,3.20
2019,10,28,08,58,3.20
2019,10,28,08,59,3.20
2019,10,28,09,00,3.20
2019,10,28,09,01,3.30
2019,10,28,09,02,3.30
2019,10,28,09,03,3.30
2019,10,28,09,04,3.40
2019,10,28,09,05,3.40
2019,10,28,09,06,3.40
2019,10,28,09,07,3.50
2019,10,28,09,08,3.50
2019,10,28,09,09,3.60
2019,10,28,09,10,3.60
2019,10,28,09,11,3.60
2019,10,28,09,12,3.70
2019,10,28,09,13,3.70
2019,10,28,09,14,3.80
2019,10,28,09,15,3.80
2019,10,28,09,16,3.90
2019,10,28,09,17,3.90
2019,10,28,09,18,4.00
2019,10,28,09,19,4.10
2019,10,28,09,20,4.20
2019,10,28,09,21,4.30
2019,10,28,09,22,4.30
2019,10,28,09,23,4.40
2019,10,28,09,24,4.50
2019,10,28,09,25,4.60
2019,10,28,09,26,4.70
2019,10,28,09,27,4.70
2019,10,28,09,28,4.70
2019,10,28,09,29,4.80
2019,10,28,09,30,4.80
2019,10,28,09,31,4.80
2019,10,28,09,32,4.80
2019,10,28,09,33,4.90
2019,10,28,09,34,4.90
2019,10,28,09,35,4.90
2019,10,28,09,36,4.90
2019,10,28,09,37,5.00
2019,10,28,09,38,5.00
2019,10,28,09,39,5.00
2019,10,28,09,40,5.10
2019,10,28,09,41,5.10
2019,10,28,09,42,5.10
2019,10,28,09,43,5.10
2019,10,28,09,44,5.10
2019,10,28,09,45,5.20
2019,10,28,09,46,5.20
2019,10,28,09,47,5.20
2019,10,28,09,48,5.20
2019,10,28,09,49,5.30
2019,10,28,09,50,5.30
2019,10,28,09,51,5.30
2019,10,28,09,52,5.30
2019,10,28,09,53,5.30
2019,10,28,09,54,5.30
2019,10,28,09,55,5.30
2019,10,28,09,56,5.40
2019,10,28,09,57,5.40
2019,10,28,09,58,5.40
2019,10,28,09,59,5.40
2019,10,28,10,00,5.50
2019,10,28,10,01,5.50
2019,10,28,10,02,5.60
2019,10,28,10,03,5.60
2019,10,28,10,04,5.60
2019,10,28,10,05,5.60
2019,10,28,10,06,5.70
2019,10,28,10,07,5.70
2019,10,28,10,08,5.70
2019,10,28,10,09,5.80
2019,10,28,10,10,5.80
2019,10,28,10,11,5.80
2019,10,28,10,12,5.80
2019,10,28,10,13,5.80
2019,10,28,10,14,5.80
2019,10,28,10,15,5.90
2019,10,28,10,16,5.90
2019,10,28,10,17,5.90
2019,10,28,10,18,5.90
2019,10,28,10,19,5.90
2019,10,28,10,20,6.00
2019,10,28,10,21,6.00
2019,10,28,10,22,6.10
2019,10,28,10,23,6.10
2019,10,28,10,24,6.10
2019,10,28,10,25,6.10
2019,10,28,10,26,6.20
2019,10,28,10,27,6.20
2019,10,28,10,28,6.20
2019,10,28,10,29,6.20
2019,10,28,10,30,6.30
2019,10,28,10,31,6.30
2019,10,28,10,32,6.30
2019,10,28,10,33,6.30
2019,10,28,10,34,6.40
2019,10,28,10,35,6.40
2019,10,28,10,36,6.40
2019,10,28,10,37,6.50
2019,10,28,10,38,6.60
2019,10,28,10,39,6.60
2019,10,28,10,40,6.60
2019,10,28,10,41,6.70
2019,10,28,10,42,6.70
2019,10,28,10,43,6.70
2019,10,28,10,44,6.80
2019,10,28,10,45,6.80
2019,10,28,10,46,6.80
2019,10,28,10,47,6.90
2019,10,28,10,48,6.90
2019,10,28,10,49,7.00
2019,10,28,10,50,7.00
2019,10,28,10,51,7.10
2019,10,28,10,52,7.10
2019,10,28,10,53,7.20
2019,10,28,10,54,7.20
2019,10,28,10,55,7.20
2019,10,28,10,56,7.20
2019,10,28,10,57,7.30
2019,10,28,10,58,7.30
2019,10,28,10,59,7.30
2019,10,28,11,00,7.30
2019,10,28,11,01,7.30
2019,10,28,11,02,7.40
2019,10,28,11,03,7.40
2019,10,28,11,04,7.40
2019,10,28,11,05,7.40
2019,10,28,11,06,7.40
2019,10,28,11,07,7.50
2019,10,28,11,08,7.50
2019,10,28,11,09,7.50
2019,10,28,11,10,7.50
2019,10,28,11,11,7.50
2019,10,28,11,12,7.60
2019,10,28,11,13,7.60
2019,10,28,11,14,7.60
2019,10,28,11,15,7.60
2019,10,28,11,16,7.70
2019,10,28,11,17,7.70
2019,10,28,11,18,7.70
2019,10,28,11,19,7.80
2019,10,28,11,20,7.80
2019,10,28,11,21,7.80
2019,10,28,11,22,7.80
2019,10,28,11,23,7.80
2019,10,28,11,24,7.90
2019,10,28,11,25,7.90
2019,10,28,11,26,7.90
2019,10,28,11,27,7.90
2019,10,28,11,28,7.90
2019,10,28,11,29,7.90
2019,10,28,11,30,7.90
2019,10,28,11,31,7.90
2019,10,28,11,32,8.00
2019,10,28,11,33,8.00
2019,10,28,11,34,8.00
2019,10,28,11,35,8.10
2019,10,28,11,36,8.10
2019,10,28,11,37,8.10
2019,10,28,11,38,8.10
2019,10,28,11,39,8.20
2019,10,28,11,40,8.20
2019,10,28,11,41,8.20
2019,10,28,11,42,8.20
2019,10,28,11,43,8.20
2019,10,28,11,44,8.20
2019,10,28,11,45,8.20
2019,10,28,11,46,8.20
2019,10,28,11,47,8.20
2019,10,28,11,48,8.20
2019,10,28,11,49,8.20
2019,10,28,11,50,8.20
2019,10,28,11,51,8.20
2019,10,28,11,52,8.20
2019,10,28,11,53,8.30
2019,10,28,11,54,8.30
2019,10,28,11,55,8.30
2019,10,28,11,56,8.30
2019,10,28,11,57,8.30
2019,10,28,11,58,8.30
2019,10,28,11,59,8.30
2019,10,28,12,00,8.30
2019,10,28,12,01,8.30
2019,10,28,12,02,8.30
2019,10,28,12,03,8.30
2019,10,28,12,04,8.30
2019,10,28,12,05,8.30
2019,10,28,12,06,8.30
2019,10,28,12,07,8.30
2019,10,28,12,08,8.30
2019,10,28,12,09,8.40
2019,10,28,12,10,8.40
2019,10,28,12,11,8.50
2019,10,28,12,12,8.50
2019,10,28,12,13,8.50
2019,10,28,12,14,8.60
2019,10,28,12,15,8.70
2019,10,28,12,16,8.70
2019,10,28,12,17,8.80
2019,10,28,12,18,8.80
2019,10,28,12,19,8.90
2019,10,28,12,20,8.90
2019,10,28,12,21,9.00
2019,10,28,12,22,9.00
2019,10,28,12,23,9.00
2019,10,28,12,24,9.10
2019,10,28,12,25,9.00
2019,10,28,12,26,9.00
2019,10,28,12,27,9.00
2019,10,28,12,28,8.90
2019,10,28,12,29,8.90
2019,10,28,12,30,8.90
2019,10,28,12,31,8.90
2019,10,28,12,32,8.80
2019,10,28,12,33,8.80
2019,10,28,12,34,8.80
2019,10,28,12,35,8.80
2019,10,28,12,36,8.80
2019,10,28,12,37,8.80
2019,10,28,12,38,8.80
2019,10,28,12,39,8.80
2019,10,28,12,40,8.80
2019,10,28,12,41,8.80
2019,10,28,12,42,8.90
2019,10,28,12,43,8.90
2019,10,28,12,44,8.90
2019,10,28,12,45,8.90
2019,10,28,12,46,8.90
2019,10,28,12,47,8.90
2019,10,28,12,48,8.90
2019,10,28,12,49,8.90
2019,10,28,12,50,8.90
2019,10,28,12,51,8.90
2019,10,28,12,52,8.90
2019,10,28,12,53,9.00
2019,10,28,12,54,9.00
2019,10,28,12,55,9.00
2019,10,28,12,56,9.10
2019,10,28,12,57,9.10
2019,10,28,12,58,9.10
2019,10,28,12,59,9.10
2019,10,28,13,00,9.10
2019,10,28,13,01,9.10
2019,10,28,13,02,9.10
2019,10,28,13,03,9.10
2019,10,28,13,04,9.10
2019,10,28,13,05,9.10
2019,10,28,13,06,9.10
2019,10,28,13,07,9.10
2019,10,28,13,08,9.10
2019,10,28,13,09,9.10
2019,10,28,13,10,9.10
2019,10,28,13,11,9.10
2019,10,28,13,12,9.10
2019,10,28,13,13,9.10
2019,10,28,13,14,9.10
2019,10,28,13,15,9.10
2019,10,28,13,16,9.10
2019,10,28,13,17,9.10
2019,10,28,13,18,9.10
2019,10,28,13,19,9.10
2019,10,28,13,20,9.10
2019,10,28,13,21,9.10
2019,10,28,13,22,9.10
2019,10,28,13,23,9.10
2019,10,28,13,24,9.10
2019,10,28,13,25,9.10
2019,10,28,13,26,9.10
2019,10,28,13,27,9.10
2019,10,28,13,28,9.10
2019,10,28,13,29,9.10
2019,10,28,13,30,9.10
2019,10,28,13,31,9.10
2019,10,28,13,32,9.10
2019,10,28,13,33,9.10
2019,10,28,13,34,9.00
2019,10,28,13,35,9.00
2019,10,28,13,36,9.00
2019,10,28,13,37,8.90
2019,10,28,13,38,8.90
2019,10,28,13,39,8.90
2019,10,28,13,40,8.90
2019,10,28,13,41,8.90
2019,10,28,13,42,8.90
2019,10,28,13,43,8.90
2019,10,28,13,44,8.90
2019,10,28,13,45,8.90
2019,10,28,13,46,8.90
2019,10,28,13,47,9.00
2019,10,28,13,48,9.10
2019,10,28,13,49,9.20
2019,10,28,13,50,9.20
2019,10,28,13,51,9.30
2019,10,28,13,52,9.30
2019,10,28,13,53,9.30
2019,10,28,13,54,9.30
2019,10,28,13,55,9.30
2019,10,28,13,56,9.30
2019,10,28,13,57,9.30
2019,10,28,13,58,9.30
2019,10,28,13,59,9.30
2019,10,28,14,00,9.40
2019,10,28,14,01,9.40
2019,10,28,14,02,9.40
2019,10,28,14,03,9.40
2019,10,28,14,04,9.50
2019,10,28,14,05,9.50
2019,10,28,14,06,9.60
2019,10,28,14,07,9.60
2019,10,28,14,08,9.70
2019,10,28,14,09,9.70
2019,10,28,14,10,9.70
2019,10,28,14,11,9.80
2019,10,28,14,12,9.80
2019,10,28,14,13,9.80
2019,10,28,14,14,9.80
2019,10,28,14,15,9.80
2019,10,28,14,16,9.90
2019,10,28,14,17,9.90
2019,10,28,14,18,9.90
2019,10,28,14,19,9.90
2019,10,28,14,20,9.90
2019,10,28,14,21,9.90
2019,10,28,14,22,9.90
2019,10,28,14,23,9.90
2019,10,28,14,24,9.90
2019,10,28,14,25,9.90
2019,10,28,14,26,9.90
2019,10,28,14,27,9.90
2019,10,28,14,28,10.00
2019,10,28,14,29,10.00
2019,10,28,14,30,10.00
2019,10,28,14,31,10.10
2019,10,28,14,32,10.10
2019,10,28,14,33,10.10
2019,10,28,14,34,10.10
2019,10,28,14,35,10.10
2019,10,28,14,36,10.10
2019,10,28,14,37,10.10
2019,10,28,14,38,10.10
2019,10,28,14,39,10.20
2019,10,28,14,40,10.20
2019,10,28,14,41,10.20
2019,10,28,14,42,10.20
2019,10,28,14,43,10.20
2019,10,28,14,44,10.20
2019,10,28,14,45,10.20
2019,10,28,14,46,10.30
2019,10,28,14,47,10.30
2019,10,28,14,48,10.30
2019,10,28,14,49,10.30
2019,10,28,14,50,10.30
2019,10,28,14,51,10.40
2019,10,28,14,52,10.40
2019,10,28,14,53,10.50
2019,10,28,14,54,10.60
2019,10,28,14,55,10.60
2019,10,28,14,56,10.60
2019,10,28,14,57,10.70
2019,10,28,14,58,10.70
2019,10,28,14,59,10.70
2019,10,28,15,00,10.70
2019,10,28,15,01,10.80
2019,10,28,15,02,10.80
2019,10,28,15,03,10.80
2019,10,28,15,04,10.80
2019,10,28,15,05,10.80
2019,10,28,15,06,10.80
2019,10,28,15,07,10.90
2019,10,28,15,08,10.90
2019,10,28,15,09,10.90
2019,10,28,15,10,10.90
2019,10,28,15,11,10.90
2019,10,28,15,12,10.80
2019,10,28,15,13,10.80
2019,10,28,15,14,10.70
2019,10,28,15,15,10.70
2019,10,28,15,16,10.70
2019,10,28,15,17,10.70
2019,10,28,15,18,10.70
2019,10,28,15,19,10.70
2019,10,28,15,20,10.70
2019,10,28,15,21,10.70
2019,10,28,15,22,10.70
2019,10,28,15,23,10.70
2019,10,28,15,24,10.70
2019,10,28,15,25,10.70
2019,10,28,15,26,10.70
2019,10,28,15,27,10.70
2019,10,28,15,28,10.60
2019,10,28,15,29,10.60
2019,10,28,15,30,10.60
2019,10,28,15,31,10.60
2019,10,28,15,32,10.60
2019,10,28,15,33,10.60
2019,10,28,15,34,10.50
2019,10,28,15,35,10.50
2019,10,28,15,36,10.50
2019,10,28,15,37,10.50
2019,10,28,15,38,10.50
2019,10,28,15,39,10.60
2019,10,28,15,40,10.60
2019,10,28,15,41,10.60
2019,10,28,15,42,10.60
2019,10,28,15,43,10.60
2019,10,28,15,44,10.60
2019,10,28,15,45,10.60
2019,10,28,15,46,10.60
2019,10,28,15,47,10.60
2019,10,28,15,48,10.50
2019,10,28,15,49,10.50
2019,10,28,15,50,10.50
2019,10,28,15,51,10.50
2019,10,28,15,52,10.50
2019,10,28,15,53,10.50
2019,10,28,15,54,10.50
2019,10,28,15,55,10.50
2019,10,28,15,56,10.50
2019,10,28,15,57,10.50
2019,10,28,15,58,10.50
2019,10,28,15,59,10.50
2019,10,28,16,00,10.50
2019,10,28,16,01,10.50
2019,10,28,16,02,10.40
2019,10,28,16,03,10.40
2019,10,28,16,04,10.40
2019,10,28,16,05,10.40
2019,10,28,16,06,10.50
2019,10,28,16,07,10.50
2019,10,28,16,08,10.50
2019,10,28,16,09,10.50
2019,10,28,16,10,10.50
2019,10,28,16,11,10.40
2019,10,28,16,12,10.40
2019,10,28,16,13,10.40
2019,10,28,16,14,10.40
2019,10,28,16,15,10.40
2019,10,28,16,16,10.40
2019,10,28,16,17,10.40
2019,10,28,16,18,10.30
2019,10,28,16,19,10.30
2019,10,28,16,20,10.30
2019,10,28,16,21,10.30
2019,10,28,16,22,10.30
2019,10,28,16,23,10.30
2019,10,28,16,24,10.20
2019,10,28,16,25,10.20
2019,10,28,16,26,10.20
2019,10,28,16,27,10.20
2019,10,28,16,28,10.20
2019,10,28,16,29,10.20
2019,10,28,16,30,10.20
2019,10,28,16,31,10.20
2019,10,28,16,32,10.20
2019,10,28,16,33,10.20
2019,10,28,16,34,10.30
2019,10,28,16,35,10.30
2019,10,28,16,36,10.30
2019,10,28,16,37,10.30
2019,10,28,16,38,10.30
2019,10,28,16,39,10.30
2019,10,28,16,40,10.30
2019,10,28,16,41,10.30
2019,10,28,16,42,10.30
2019,10,28,16,43,10.30
2019,10,28,16,44,10.30
2019,10,28,16,45,10.30
2019,10,28,16,46,10.30
2019,10,28,16,47,10.30
2019,10,28,16,48,10.30
2019,10,28,16,49,10.30
2019,10,28,16,50,10.30
2019,10,28,16,51,10.30
2019,10,28,16,52,10.30
2019,10,28,16,53,10.30
2019,10,28,16,54,10.30
2019,10,28,16,55,10.30
2019,10,28,16,56,10.30
2019,10,28,16,57,10.30
2019,10,28,16,58,10.30
2019,10,28,16,59,10.40
2019,10,28,17,00,10.40
2019,10,28,17,01,10.40
2019,10,28,17,02,10.40
2019,10,28,17,03,10.40
2019,10,28,17,04,10.40
2019,10,28,17,05,10.30
2019,10,28,17,06,10.30
2019,10,28,17,07,10.30
2019,10,28,17,08,10.30
2019,10,28,17,09,10.30
2019,10,28,17,10,10.30
2019,10,28,17,11,10.20
2019,10,28,17,12,10.30
2019,10,28,17,13,10.30
2019,10,28,17,14,10.30
2019,10,28,17,15,10.30
2019,10,28,17,16,10.30
2019,10,28,17,17,10.20
2019,10,28,17,18,10.20
2019,10,28,17,19,10.20
2019,10,28,17,20,10.20
2019,10,28,17,21,10.20
2019,10,28,17,22,10.10
2019,10,28,17,23,10.10
2019,10,28,17,24,10.10
2019,10,28,17,25,10.10
2019,10,28,17,26,10.10
2019,10,28,17,27,10.10
2019,10,28,17,28,10.10
2019,10,28,17,29,10.00
2019,10,28,17,30,10.00
2019,10,28,17,31,10.00
2019,10,28,17,32,10.00
2019,10,28,17,33,10.00
2019,10,28,17,34,9.90
2019,10,28,17,35,9.90
2019,10,28,17,36,9.90
2019,10,28,17,37,9.90
2019,10,28,17,38,9.90
2019,10,28,17,39,9.90
2019,10,28,17,40,9.80
2019,10,28,17,41,9.80
2019,10,28,17,42,9.80
2019,10,28,17,43,9.80
2019,10,28,17,44,9.80
2019,10,28,17,45,9.80
2019,10,28,17,46,9.80
2019,10,28,17,47,9.70
2019,10,28,17,48,9.70
2019,10,28,17,49,9.70
2019,10,28,17,50,9.70
2019,10,28,17,51,9.60
2019,10,28,17,52,9.60
2019,10,28,17,53,9.60
2019,10,28,17,54,9.50
2019,10,28,17,55,9.50
2019,10,28,17,56,9.40
2019,10,28,17,57,9.40
2019,10,28,17,58,9.40
2019,10,28,17,59,9.30
2019,10,28,18,00,9.30
2019,10,28,18,01,9.20
2019,10,28,18,02,9.20
2019,10,28,18,03,9.20
2019,10,28,18,04,9.10
2019,10,28,18,05,9.10
2019,10,28,18,06,9.00
2019,10,28,18,07,9.00
2019,10,28,18,08,8.90
2019,10,28,18,09,8.90
2019,10,28,18,10,8.80
2019,10,28,18,11,8.80
2019,10,28,18,12,8.70
2019,10,28,18,13,8.70
2019,10,28,18,14,8.60
2019,10,28,18,15,8.60
2019,10,28,18,16,8.50
2019,10,28,18,17,8.40
2019,10,28,18,18,8.40
2019,10,28,18,19,8.30
2019,10,28,18,20,8.30
2019,10,28,18,21,8.30
2019,10,28,18,22,8.20
2019,10,28,18,23,8.20
2019,10,28,18,24,8.20
2019,10,28,18,25,8.10
2019,10,28,18,26,8.10
2019,10,28,18,27,8.00
2019,10,28,18,28,8.00
2019,10,28,18,29,7.90
2019,10,28,18,30,7.90
2019,10,28,18,31,7.90
2019,10,28,18,32,7.90
2019,10,28,18,33,7.80
2019,10,28,18,34,7.80
2019,10,28,18,35,7.80
2019,10,28,18,36,7.80
2019,10,28,18,37,7.70
2019,10,28,18,38,7.70
2019,10,28,18,39,7.70
2019,10,28,18,40,7.70
2019,10,28,18,41,7.60
2019,10,28,18,42,7.60
2019,10,28,18,43,7.60
2019,10,28,18,44,7.60
2019,10,28,18,45,7.50
2019,10,28,18,46,7.50
2019,10,28,18,47,7.50
2019,10,28,18,48,7.50
2019,10,28,18,49,7.40
2019,10,28,18,50,7.40
2019,10,28,18,51,7.40
2019,10,28,18,52,7.30
2019,10,28,18,53,7.30
2019,10,28,18,54,7.30
2019,10,28,18,55,7.20
2019,10,28,18,56,7.20
2019,10,28,18,57,7.20
2019,10,28,18,58,7.20
2019,10,28,18,59,7.10
2019,10,28,19,00,7.10
2019,10,28,19,01,7.10
2019,10,28,19,02,7.10
2019,10,28,19,03,7.10
2019,10,28,19,04,7.00
2019,10,28,19,05,7.00
2019,10,28,19,06,7.00
2019,10,28,19,07,7.00
2019,10,28,19,08,7.00
2019,10,28,19,09,7.00
2019,10,28,19,10,7.00
2019,10,28,19,11,6.90
2019,10,28,19,12,6.90
2019,10,28,19,13,6.90
2019,10,28,19,14,6.90
2019,10,28,19,15,6.90
2019,10,28,19,16,6.90
2019,10,28,19,17,6.90
2019,10,28,19,18,6.90
2019,10,28,19,19,6.80
2019,10,28,19,20,6.80
2019,10,28,19,21,6.80
2019,10,28,19,22,6.80
2019,10,28,19,23,6.80
2019,10,28,19,24,6.80
2019,10,28,19,25,6.80
2019,10,28,19,26,6.70
2019,10,28,19,27,6.70
2019,10,28,19,28,6.80
2019,10,28,19,29,6.80
2019,10,28,19,30,6.80
2019,10,28,19,31,6.80
2019,10,28,19,32,6.80
2019,10,28,19,33,6.80
2019,10,28,19,34,6.70
2019,10,28,19,35,6.70
2019,10,28,19,36,6.70
2019,10,28,19,37,6.70
2019,10,28,19,38,6.60
2019,10,28,19,39,6.60
2019,10,28,19,40,6.60
2019,10,28,19,41,6.60
2019,10,28,19,42,6.50
2019,10,28,19,43,6.50
2019,10,28,19,44,6.40
2019,10,28,19,45,6.40
2019,10,28,19,46,6.30
2019,10,28,19,47,6.30
2019,10,28,19,48,6.20
2019,10,28,19,49,6.20
2019,10,28,19,50,6.20
2019,10,28,19,51,6.20
2019,10,28,19,52,6.10
2019,10,28,19,53,6.10
2019,10,28,19,54,6.10
2019,10,28,19,55,6.10